Time,TemperatureF,DewpointF,PressureIn,WindDirection,WindDirectionDegrees,WindSpeedMPH,WindSpeedGustMPH,Humidity,HourlyPrecipIn,Conditions,Clouds,dailyrainin,SoftwareType,DateUTC
2013-03-02 00:01:00,45.6,20.8,29.53,North,-999,0.0,0.0,37,0.00,,,0.00,LWC V1.12 B30,2013-03-02 07:01:00,
2013-03-02 00:06:00,45.5,21.4,29.53,North,-999,0.0,0.0,38,0.00,,,0.00,LWC V1.12 B30,2013-03-02 07:06:00,
2013-03-02 00:11:00,45.3,20.6,29.53,North,-999,0.0,0.0,37,0.00,,,0.00,LWC V1.12 B30,2013-03-02 07:11:00,
2013-03-02 00:16:00,45.2,21.1,29.53,North,-999,0.0,0.0,38,0.00,,,0.00,LWC V1.12 B30,2013-03-02 07:16:00,
2013-03-02 00:21:00,45.2,21.1,29.53,North,-999,0.0,0.0,38,0.00,,,0.00,LWC V1.12 B30,2013-03-02 07:21:00,
2013-03-02 00:26:00,45.1,21.6,29.53,North,-999,0.0,0.0,39,0.00,,,0.00,LWC V1.12 B30,2013-03-02 07:26:00,
2013-03-02 00:31:00,45.1,21.0,29.53,North,-999,0.0,0.0,38,0.00,,,0.00,LWC V1.12 B30,2013-03-02 07:31:00,
2013-03-02 00:36:00,45.0,20.9,29.53,North,-999,0.0,0.0,38,0.00,,,0.00,LWC V1.12 B30,2013-03-02 07:36:00,
2013-03-02 00:41:00,45.0,21.5,29.53,North,-999,0.0,0.0,39,0.00,,,0.00,LWC V1.12 B30,2013-03-02 07:41:00,
2013-03-02 00:46:00,45.0,21.5,29.53,North,-999,0.0,0.0,39,0.00,,,0.00,LWC V1.12 B30,2013-03-02 07:46:00,
2013-03-02 00:51:00,45.1,22.2,29.53,North,-999,0.0,0.0,40,0.00,,,0.00,LWC V1.12 B30,2013-03-02 07:51:00,
2013-03-02 00:56:00,45.0,22.1,29.53,North,-999,0.0,0.0,40,0.00,,,0.00,LWC V1.12 B30,2013-03-02 07:56:00,
2013-03-02 01:01:00,44.7,21.9,29.53,North,-999,0.0,0.0,40,0.00,,,0.00,LWC V1.12 B30,2013-03-02 08:01:00,
2013-03-02 01:06:00,44.6,21.8,29.53,North,-999,0.0,0.0,40,0.00,,,0.00,LWC V1.12 B30,2013-03-02 08:06:00,
2013-03-02 01:11:00,44.5,21.7,29.53,North,-999,0.0,0.0,40,0.00,,,0.00,LWC V1.12 B30,2013-03-02 08:11:00,
2013-03-02 01:16:00,44.3,22.1,29.53,North,-999,0.0,0.0,41,0.00,,,0.00,LWC V1.12 B30,2013-03-02 08:16:00,
2013-03-02 01:21:00,44.2,20.8,29.53,North,-999,0.0,0.0,39,0.00,,,0.00,LWC V1.12 B30,2013-03-02 08:21:00,
2013-03-02 01:26:00,44.1,21.3,29.53,North,-999,0.0,0.0,40,0.00,,,0.00,LWC V1.12 B30,2013-03-02 08:26:00,
2013-03-02 01:31:00,44.0,20.7,29.53,North,-999,0.0,0.0,39,0.00,,,0.00,LWC V1.12 B30,2013-03-02 08:31:00,
2013-03-02 01:36:00,43.8,21.1,29.53,North,-999,0.0,0.0,40,0.00,,,0.00,LWC V1.12 B30,2013-03-02 08:36:00,
2013-03-02 01:41:00,43.7,21.6,29.53,North,-999,0.0,0.0,41,0.00,,,0.00,LWC V1.12 B30,2013-03-02 08:41:00,
2013-03-02 01:46:00,43.6,22.0,29.53,North,-999,0.0,0.0,42,0.00,,,0.00,LWC V1.12 B30,2013-03-02 08:46:00,
2013-03-02 01:51:00,43.5,21.4,29.53,North,-999,0.0,0.0,41,0.00,,,0.00,LWC V1.12 B30,2013-03-02 08:51:00,
2013-03-02 01:56:00,43.4,21.3,29.53,North,-999,0.0,0.0,41,0.00,,,0.00,LWC V1.12 B30,2013-03-02 08:56:00,
2013-03-02 02:01:00,43.2,21.1,29.53,North,-999,0.0,0.0,41,0.00,,,0.00,LWC V1.12 B30,2013-03-02 09:01:00,
2013-03-02 02:06:00,43.0,20.9,29.53,North,-999,0.0,0.0,41,0.00,,,0.00,LWC V1.12 B30,2013-03-02 09:06:00,
2013-03-02 02:11:00,42.9,21.4,29.53,North,-999,0.0,0.0,42,0.00,,,0.00,LWC V1.12 B30,2013-03-02 09:11:00,
2013-03-02 02:16:00,42.8,21.3,29.53,North,-999,0.0,0.0,42,0.00,,,0.00,LWC V1.12 B30,2013-03-02 09:16:00,
2013-03-02 02:21:00,42.8,21.3,29.53,North,-999,0.0,0.0,42,0.00,,,0.00,LWC V1.12 B30,2013-03-02 09:21:00,
2013-03-02 02:26:00,42.6,21.1,29.53,North,-999,0.0,0.0,42,0.00,,,0.00,LWC V1.12 B30,2013-03-02 09:26:00,
2013-03-02 02:31:00,42.5,21.6,29.53,North,-999,0.0,0.0,43,0.00,,,0.00,LWC V1.12 B30,2013-03-02 09:31:00,
2013-03-02 02:36:00,42.4,21.5,29.53,North,-999,0.0,0.0,43,0.00,,,0.00,LWC V1.12 B30,2013-03-02 09:36:00,
2013-03-02 02:41:00,42.4,21.0,29.53,North,-999,0.0,0.0,42,0.00,,,0.00,LWC V1.12 B30,2013-03-02 09:41:00,
2013-03-02 02:46:00,42.4,21.5,29.53,North,-999,0.0,0.0,43,0.00,,,0.00,LWC V1.12 B30,2013-03-02 09:46:00,
2013-03-02 02:51:00,42.2,21.3,29.53,North,-999,0.0,0.0,43,0.00,,,0.00,LWC V1.12 B30,2013-03-02 09:51:00,
2013-03-02 02:56:00,42.2,21.3,29.53,North,-999,0.0,0.0,43,0.00,,,0.00,LWC V1.12 B30,2013-03-02 09:56:00,
2013-03-02 03:01:00,42.0,21.7,29.53,North,-999,0.0,0.0,44,0.00,,,0.00,LWC V1.12 B30,2013-03-02 10:01:00,
2013-03-02 03:06:00,42.0,21.7,29.53,North,-999,0.0,0.0,44,0.00,,,0.00,LWC V1.12 B30,2013-03-02 10:06:00,
2013-03-02 03:11:00,41.9,21.6,29.53,North,-999,0.0,0.0,44,0.00,,,0.00,LWC V1.12 B30,2013-03-02 10:11:00,
2013-03-02 03:16:00,41.9,21.6,29.53,North,-999,0.0,0.0,44,0.00,,,0.00,LWC V1.12 B30,2013-03-02 10:16:00,
2013-03-02 03:21:00,41.9,21.6,29.53,North,-999,0.0,0.0,44,0.00,,,0.00,LWC V1.12 B30,2013-03-02 10:21:00,
2013-03-02 03:26:00,41.9,21.6,29.53,North,-999,0.0,0.0,44,0.00,,,0.00,LWC V1.12 B30,2013-03-02 10:26:00,
2013-03-02 03:31:00,41.8,21.5,29.53,North,-999,0.0,0.0,44,0.00,,,0.00,LWC V1.12 B30,2013-03-02 10:31:00,
2013-03-02 03:37:00,41.7,21.4,29.53,North,-999,0.0,0.0,44,0.00,,,0.00,LWC V1.12 B30,2013-03-02 10:37:00,
2013-03-02 03:42:00,41.4,21.1,29.53,North,-999,0.0,0.0,44,0.00,,,0.00,LWC V1.12 B30,2013-03-02 10:42:00,
2013-03-02 03:47:00,41.4,21.1,29.53,North,-999,0.0,0.0,44,0.00,,,0.00,LWC V1.12 B30,2013-03-02 10:47:00,
2013-03-02 03:52:00,41.3,21.0,29.53,North,-999,0.0,0.0,44,0.00,,,0.00,LWC V1.12 B30,2013-03-02 10:52:00,
2013-03-02 03:57:00,41.1,20.9,29.53,North,-999,0.0,0.0,44,0.00,,,0.00,LWC V1.12 B30,2013-03-02 10:57:00,
2013-03-02 04:02:00,41.0,21.3,29.53,North,-999,0.0,0.0,45,0.00,,,0.00,LWC V1.12 B30,2013-03-02 11:02:00,
2013-03-02 04:07:00,40.7,21.0,29.53,North,-999,0.0,0.0,45,0.00,,,0.00,LWC V1.12 B30,2013-03-02 11:07:00,
2013-03-02 04:12:00,40.7,21.0,29.53,North,-999,0.0,0.0,45,0.00,,,0.00,LWC V1.12 B30,2013-03-02 11:12:00,
2013-03-02 04:17:00,40.5,20.9,29.53,North,-999,0.0,0.0,45,0.00,,,0.00,LWC V1.12 B30,2013-03-02 11:17:00,
2013-03-02 04:22:00,40.4,21.3,29.53,North,-999,0.0,0.0,46,0.00,,,0.00,LWC V1.12 B30,2013-03-02 11:22:00,
2013-03-02 04:27:00,40.3,20.7,29.53,North,-999,0.0,0.0,45,0.00,,,0.00,LWC V1.12 B30,2013-03-02 11:27:00,
2013-03-02 04:32:00,40.1,20.5,29.53,North,-999,0.0,0.0,45,0.00,,,0.00,LWC V1.12 B30,2013-03-02 11:32:00,
2013-03-02 04:37:00,39.9,20.8,29.53,North,-999,0.0,0.0,46,0.00,,,0.00,LWC V1.12 B30,2013-03-02 11:37:00,
2013-03-02 04:42:00,39.9,20.8,29.53,North,-999,0.0,0.0,46,0.00,,,0.00,LWC V1.12 B30,2013-03-02 11:42:00,
2013-03-02 04:47:00,39.8,21.2,29.53,North,-999,0.0,0.0,47,0.00,,,0.00,LWC V1.12 B30,2013-03-02 11:47:00,
2013-03-02 04:52:00,39.8,20.7,29.53,North,-999,0.0,0.0,46,0.00,,,0.00,LWC V1.12 B30,2013-03-02 11:52:00,
2013-03-02 04:57:00,39.7,21.1,29.53,North,-999,0.0,0.0,47,0.00,,,0.00,LWC V1.12 B30,2013-03-02 11:57:00,
2013-03-02 05:02:00,39.5,21.0,29.53,North,-999,0.0,0.0,47,0.00,,,0.00,LWC V1.12 B30,2013-03-02 12:02:00,
2013-03-02 05:07:00,39.5,21.0,29.53,North,-999,0.0,0.0,47,0.00,,,0.00,LWC V1.12 B30,2013-03-02 12:07:00,
2013-03-02 05:12:00,39.4,20.9,29.53,North,-999,0.0,0.0,47,0.00,,,0.00,LWC V1.12 B30,2013-03-02 12:12:00,
2013-03-02 05:17:00,39.3,20.8,29.53,North,-999,0.0,0.0,47,0.00,,,0.00,LWC V1.12 B30,2013-03-02 12:17:00,
2013-03-02 05:22:00,39.3,21.3,29.53,North,-999,0.0,0.0,48,0.00,,,0.00,LWC V1.12 B30,2013-03-02 12:22:00,
2013-03-02 05:27:00,39.3,21.3,29.53,North,-999,0.0,0.0,48,0.00,,,0.00,LWC V1.12 B30,2013-03-02 12:27:00,
2013-03-02 05:32:00,39.2,20.7,29.53,North,-999,0.0,0.0,47,0.00,,,0.00,LWC V1.12 B30,2013-03-02 12:32:00,
2013-03-02 05:37:00,39.2,20.7,29.53,North,-999,0.0,0.0,47,0.00,,,0.00,LWC V1.12 B30,2013-03-02 12:37:00,
2013-03-02 05:42:00,39.2,21.2,29.53,North,-999,0.0,0.0,48,0.00,,,0.00,LWC V1.12 B30,2013-03-02 12:42:00,
2013-03-02 05:47:00,39.1,21.1,29.53,North,-999,0.0,0.0,48,0.00,,,0.00,LWC V1.12 B30,2013-03-02 12:47:00,
2013-03-02 05:52:00,39.1,21.1,29.53,North,-999,0.0,0.0,48,0.00,,,0.00,LWC V1.12 B30,2013-03-02 12:52:00,
2013-03-02 05:57:00,39.1,21.1,29.53,North,-999,0.0,0.0,48,0.00,,,0.00,LWC V1.12 B30,2013-03-02 12:57:00,
2013-03-02 06:02:00,39.1,20.6,29.53,North,-999,0.0,0.0,47,0.00,,,0.00,LWC V1.12 B30,2013-03-02 13:02:00,
2013-03-02 06:07:00,38.9,20.4,29.53,North,-999,0.0,0.0,47,0.00,,,0.00,LWC V1.12 B30,2013-03-02 13:07:00,
2013-03-02 06:12:00,38.9,20.4,29.53,North,-999,0.0,0.0,47,0.00,,,0.00,LWC V1.12 B30,2013-03-02 13:12:00,
2013-03-02 06:17:00,38.8,20.8,29.53,North,-999,0.0,0.0,48,0.00,,,0.00,LWC V1.12 B30,2013-03-02 13:17:00,
2013-03-02 06:22:00,38.7,21.2,29.53,North,-999,0.0,0.0,49,0.00,,,0.00,LWC V1.12 B30,2013-03-02 13:22:00,
2013-03-02 06:27:00,38.6,21.1,29.53,North,-999,0.0,0.0,49,0.00,,,0.00,LWC V1.12 B30,2013-03-02 13:27:00,
2013-03-02 06:32:00,38.6,20.6,29.53,North,-999,0.0,0.0,48,0.00,,,0.00,LWC V1.12 B30,2013-03-02 13:32:00,
2013-03-02 06:37:00,38.6,21.1,29.53,North,-999,0.0,0.0,49,0.00,,,0.00,LWC V1.12 B30,2013-03-02 13:37:00,
2013-03-02 06:42:00,38.6,20.6,29.53,North,-999,0.0,0.0,48,0.00,,,0.00,LWC V1.12 B30,2013-03-02 13:42:00,
2013-03-02 06:47:00,38.5,20.5,29.53,North,-999,0.0,0.0,48,0.00,,,0.00,LWC V1.12 B30,2013-03-02 13:47:00,
2013-03-02 06:52:00,38.6,20.6,29.53,North,-999,0.0,0.0,48,0.00,,,0.00,LWC V1.12 B30,2013-03-02 13:52:00,
2013-03-02 06:57:00,38.5,20.5,29.53,North,-999,0.0,0.0,48,0.00,,,0.00,LWC V1.12 B30,2013-03-02 13:57:00,
2013-03-02 07:02:00,38.5,20.5,29.53,North,-999,0.0,0.0,48,0.00,,,0.00,LWC V1.12 B30,2013-03-02 14:02:00,
2013-03-02 07:07:00,38.7,21.2,29.53,North,-999,0.0,0.0,49,0.00,,,0.00,LWC V1.12 B30,2013-03-02 14:07:00,
2013-03-02 07:12:00,39.0,21.5,29.53,North,-999,0.0,0.0,49,0.00,,,0.00,LWC V1.12 B30,2013-03-02 14:12:00,
2013-03-02 07:17:00,39.5,21.9,29.53,North,-999,0.0,0.0,49,0.00,,,0.00,LWC V1.12 B30,2013-03-02 14:17:00,
2013-03-02 07:22:00,40.1,22.0,29.53,North,-999,0.0,0.0,48,0.00,,,0.00,LWC V1.12 B30,2013-03-02 14:22:00,
2013-03-02 07:27:00,40.7,22.1,29.53,North,-999,0.0,0.0,47,0.00,,,0.00,LWC V1.12 B30,2013-03-02 14:27:00,
2013-03-02 07:32:00,41.3,22.1,29.53,North,-999,0.0,0.0,46,0.00,,,0.00,LWC V1.12 B30,2013-03-02 14:32:00,
2013-03-02 07:37:00,41.9,22.1,29.53,North,-999,0.0,0.0,45,0.00,,,0.00,LWC V1.12 B30,2013-03-02 14:37:00,
2013-03-02 07:42:00,42.4,22.0,29.53,North,-999,0.0,0.0,44,0.00,,,0.00,LWC V1.12 B30,2013-03-02 14:42:00,
2013-03-02 07:47:00,42.9,22.0,29.53,North,-999,0.0,0.0,43,0.00,,,0.00,LWC V1.12 B30,2013-03-02 14:47:00,
2013-03-02 07:52:00,43.3,22.3,29.53,North,-999,0.0,0.0,43,0.00,,,0.00,LWC V1.12 B30,2013-03-02 14:52:00,
2013-03-02 07:57:00,43.6,22.0,29.53,North,-999,0.0,0.0,42,0.00,,,0.00,LWC V1.12 B30,2013-03-02 14:57:00,
2013-03-02 08:02:00,43.9,21.7,29.53,North,-999,0.0,0.0,41,0.00,,,0.00,LWC V1.12 B30,2013-03-02 15:02:00,
2013-03-02 08:07:00,44.2,22.0,29.53,North,-999,0.0,0.0,41,0.00,,,0.00,LWC V1.12 B30,2013-03-02 15:07:00,
2013-03-02 08:12:00,44.4,21.6,29.53,North,-999,0.0,0.0,40,0.00,,,0.00,LWC V1.12 B30,2013-03-02 15:12:00,
2013-03-02 08:17:00,44.6,21.8,29.53,North,-999,0.0,0.0,40,0.00,,,0.00,LWC V1.12 B30,2013-03-02 15:17:00,
2013-03-02 08:22:00,44.7,21.3,29.53,North,-999,0.0,0.0,39,0.00,,,0.00,LWC V1.12 B30,2013-03-02 15:22:00,
2013-03-02 08:27:00,44.9,21.5,29.53,North,-999,0.0,0.0,39,0.00,,,0.00,LWC V1.12 B30,2013-03-02 15:27:00,
2013-03-02 08:32:00,45.2,21.7,29.53,North,-999,0.0,0.0,39,0.00,,,0.00,LWC V1.12 B30,2013-03-02 15:32:00,
2013-03-02 08:37:00,45.4,21.3,29.53,North,-999,0.0,0.0,38,0.00,,,0.00,LWC V1.12 B30,2013-03-02 15:37:00,
2013-03-02 08:42:00,45.5,21.4,29.53,North,-999,0.0,0.0,38,0.00,,,0.00,LWC V1.12 B30,2013-03-02 15:42:00,
2013-03-02 08:47:00,45.6,21.5,29.53,North,-999,0.0,0.0,38,0.00,,,0.00,LWC V1.12 B30,2013-03-02 15:47:00,
2013-03-02 08:52:00,45.8,21.7,29.53,North,-999,0.0,0.0,38,0.00,,,0.00,LWC V1.12 B30,2013-03-02 15:52:00,
2013-03-02 08:57:00,46.1,21.9,29.53,North,-999,0.0,0.0,38,0.00,,,0.00,LWC V1.12 B30,2013-03-02 15:57:00,
2013-03-02 09:02:00,46.3,22.1,29.53,North,-999,0.0,0.0,38,0.00,,,0.00,LWC V1.12 B30,2013-03-02 16:02:00,
2013-03-02 09:07:00,46.4,21.6,29.53,North,-999,0.0,0.0,37,0.00,,,0.00,LWC V1.12 B30,2013-03-02 16:07:00,
2013-03-02 09:12:00,46.6,22.4,29.53,North,-999,0.0,0.0,38,0.00,,,0.00,LWC V1.12 B30,2013-03-02 16:12:00,
2013-03-02 09:17:00,46.8,21.9,29.53,North,-999,0.0,0.0,37,0.00,,,0.00,LWC V1.12 B30,2013-03-02 16:17:00,
2013-03-02 09:22:00,47.0,22.1,29.53,North,-999,0.0,0.0,37,0.00,,,0.00,LWC V1.12 B30,2013-03-02 16:22:00,
2013-03-02 09:27:00,47.1,22.2,29.53,North,-999,0.0,0.0,37,0.00,,,0.00,LWC V1.12 B30,2013-03-02 16:27:00,
2013-03-02 09:32:00,47.4,22.5,29.53,North,-999,0.0,0.0,37,0.00,,,0.00,LWC V1.12 B30,2013-03-02 16:32:00,
2013-03-02 09:37:00,47.6,22.0,29.53,North,-999,0.0,0.0,36,0.00,,,0.00,LWC V1.12 B30,2013-03-02 16:37:00,
2013-03-02 09:42:00,47.9,22.2,29.53,North,-999,0.0,0.0,36,0.00,,,0.00,LWC V1.12 B30,2013-03-02 16:42:00,
2013-03-02 09:47:00,48.2,22.5,29.53,North,-999,0.0,0.0,36,0.00,,,0.00,LWC V1.12 B30,2013-03-02 16:47:00,
2013-03-02 09:52:00,48.5,22.1,29.53,North,-999,0.0,0.0,35,0.00,,,0.00,LWC V1.12 B30,2013-03-02 16:52:00,
2013-03-02 09:57:00,48.7,22.3,29.53,North,-999,0.0,0.0,35,0.00,,,0.00,LWC V1.12 B30,2013-03-02 16:57:00,
2013-03-02 10:02:00,49.0,22.6,29.53,North,-999,0.0,0.0,35,0.00,,,0.00,LWC V1.12 B30,2013-03-02 17:02:00,
2013-03-02 10:07:00,49.2,22.0,29.53,North,-999,0.0,0.0,34,0.00,,,0.00,LWC V1.12 B30,2013-03-02 17:07:00,
2013-03-02 10:12:00,49.5,22.3,29.53,North,-999,0.0,0.0,34,0.00,,,0.00,LWC V1.12 B30,2013-03-02 17:12:00,
2013-03-02 10:17:00,49.7,22.5,29.53,North,-999,0.0,0.0,34,0.00,,,0.00,LWC V1.12 B30,2013-03-02 17:17:00,
2013-03-02 10:22:00,49.9,22.0,29.53,North,-999,0.0,0.0,33,0.00,,,0.00,LWC V1.12 B30,2013-03-02 17:22:00,
2013-03-02 10:27:00,50.1,22.1,29.53,North,-999,0.0,0.0,33,0.00,,,0.00,LWC V1.12 B30,2013-03-02 17:27:00,
2013-03-02 10:32:00,50.3,22.3,29.53,North,-999,0.0,0.0,33,0.00,,,0.00,LWC V1.12 B30,2013-03-02 17:32:00,
2013-03-02 10:37:00,50.5,22.5,29.53,North,-999,0.0,0.0,33,0.00,,,0.00,LWC V1.12 B30,2013-03-02 17:37:00,
2013-03-02 10:42:00,50.7,22.7,29.53,North,-999,0.0,0.0,33,0.00,,,0.00,LWC V1.12 B30,2013-03-02 17:42:00,
2013-03-02 10:47:00,50.8,22.7,29.53,North,-999,0.0,0.0,33,0.00,,,0.00,LWC V1.12 B30,2013-03-02 17:47:00,
2013-03-02 10:53:00,51.2,22.4,29.53,North,-999,0.0,0.0,32,0.00,,,0.00,LWC V1.12 B30,2013-03-02 17:53:00,
2013-03-02 10:58:00,51.4,23.3,29.53,North,-999,0.0,0.0,33,0.00,,,0.00,LWC V1.12 B30,2013-03-02 17:58:00,
2013-03-02 11:03:00,51.7,22.8,29.53,North,-999,0.0,0.0,32,0.00,,,0.00,LWC V1.12 B30,2013-03-02 18:03:00,
2013-03-02 11:08:00,51.8,22.9,29.53,North,-999,0.0,0.0,32,0.00,,,0.00,LWC V1.12 B30,2013-03-02 18:08:00,
2013-03-02 11:13:00,52.0,23.1,29.53,North,-999,0.0,0.0,32,0.00,,,0.00,LWC V1.12 B30,2013-03-02 18:13:00,
2013-03-02 11:18:00,52.3,23.3,29.53,North,-999,0.0,0.0,32,0.00,,,0.00,LWC V1.12 B30,2013-03-02 18:18:00,
2013-03-02 11:23:00,52.3,22.6,29.53,North,-999,0.0,0.0,31,0.00,,,0.00,LWC V1.12 B30,2013-03-02 18:23:00,
2013-03-02 11:28:00,52.5,22.8,29.53,North,-999,0.0,0.0,31,0.00,,,0.00,LWC V1.12 B30,2013-03-02 18:28:00,
2013-03-02 11:33:00,52.6,22.8,29.53,North,-999,0.0,0.0,31,0.00,,,0.00,LWC V1.12 B30,2013-03-02 18:33:00,
2013-03-02 11:38:00,52.7,22.9,29.53,North,-999,0.0,0.0,31,0.00,,,0.00,LWC V1.12 B30,2013-03-02 18:38:00,
2013-03-02 11:43:00,52.5,22.8,29.53,North,-999,0.0,0.0,31,0.00,,,0.00,LWC V1.12 B30,2013-03-02 18:43:00,
2013-03-02 11:48:00,52.5,22.8,29.53,North,-999,0.0,0.0,31,0.00,,,0.00,LWC V1.12 B30,2013-03-02 18:48:00,
2013-03-02 11:53:00,52.6,22.8,29.53,North,-999,0.0,0.0,31,0.00,,,0.00,LWC V1.12 B30,2013-03-02 18:53:00,
2013-03-02 11:58:00,52.8,23.0,29.53,North,-999,0.0,0.0,31,0.00,,,0.00,LWC V1.12 B30,2013-03-02 18:58:00,
2013-03-02 12:03:00,53.1,22.5,29.53,North,-999,0.0,0.0,30,0.00,,,0.00,LWC V1.12 B30,2013-03-02 19:03:00,
2013-03-02 12:08:00,53.4,22.8,29.53,North,-999,0.0,0.0,30,0.00,,,0.00,LWC V1.12 B30,2013-03-02 19:08:00,
2013-03-02 12:13:00,53.4,22.8,29.53,North,-999,0.0,0.0,30,0.00,,,0.00,LWC V1.12 B30,2013-03-02 19:13:00,
2013-03-02 12:18:00,53.6,22.9,29.53,North,-999,0.0,0.0,30,0.00,,,0.00,LWC V1.12 B30,2013-03-02 19:18:00,
2013-03-02 12:23:00,53.9,23.2,29.53,North,-999,0.0,0.0,30,0.00,,,0.00,LWC V1.12 B30,2013-03-02 19:23:00,
2013-03-02 12:28:00,54.1,23.4,29.53,North,-999,0.0,0.0,30,0.00,,,0.00,LWC V1.12 B30,2013-03-02 19:28:00,
2013-03-02 12:33:00,54.1,22.6,29.53,North,-999,0.0,0.0,29,0.00,,,0.00,LWC V1.12 B30,2013-03-02 19:33:00,
2013-03-02 12:38:00,54.2,23.5,29.53,North,-999,0.0,0.0,30,0.00,,,0.00,LWC V1.12 B30,2013-03-02 19:38:00,
2013-03-02 12:43:00,54.4,22.8,29.53,North,-999,0.0,0.0,29,0.00,,,0.00,LWC V1.12 B30,2013-03-02 19:43:00,
2013-03-02 12:48:00,54.7,23.1,29.53,North,-999,0.0,0.0,29,0.00,,,0.00,LWC V1.12 B30,2013-03-02 19:48:00,
2013-03-02 12:53:00,54.9,22.4,29.53,North,-999,0.0,0.0,28,0.00,,,0.00,LWC V1.12 B30,2013-03-02 19:53:00,
2013-03-02 12:58:00,54.9,23.2,29.53,North,-999,0.0,0.0,29,0.00,,,0.00,LWC V1.12 B30,2013-03-02 19:58:00,
2013-03-02 13:03:00,55.0,22.5,29.53,North,-999,0.0,0.0,28,0.00,,,0.00,LWC V1.12 B30,2013-03-02 20:03:00,
2013-03-02 13:08:00,55.3,21.9,29.53,North,-999,0.0,0.0,27,0.00,,,0.00,LWC V1.12 B30,2013-03-02 20:08:00,
2013-03-02 13:13:00,55.4,22.0,29.53,North,-999,0.0,0.0,27,0.00,,,0.00,LWC V1.12 B30,2013-03-02 20:13:00,
2013-03-02 13:18:00,55.7,22.2,29.53,North,-999,0.0,0.0,27,0.00,,,0.00,LWC V1.12 B30,2013-03-02 20:18:00,
2013-03-02 13:23:00,55.7,22.2,29.53,North,-999,0.0,0.0,27,0.00,,,0.00,LWC V1.12 B30,2013-03-02 20:23:00,
2013-03-02 13:28:00,55.6,22.2,29.53,North,-999,0.0,0.0,27,0.00,,,0.00,LWC V1.12 B30,2013-03-02 20:28:00,
2013-03-02 13:33:00,55.6,22.2,29.53,North,-999,0.0,0.0,27,0.00,,,0.00,LWC V1.12 B30,2013-03-02 20:33:00,
2013-03-02 13:38:00,55.7,22.2,29.53,North,-999,0.0,0.0,27,0.00,,,0.00,LWC V1.12 B30,2013-03-02 20:38:00,
2013-03-02 13:43:00,55.8,22.3,29.53,North,-999,0.0,0.0,27,0.00,,,0.00,LWC V1.12 B30,2013-03-02 20:43:00,
2013-03-02 13:48:00,56.1,22.6,29.53,North,-999,0.0,0.0,27,0.00,,,0.00,LWC V1.12 B30,2013-03-02 20:48:00,
2013-03-02 13:53:00,56.2,22.7,29.53,North,-999,0.0,0.0,27,0.00,,,0.00,LWC V1.12 B30,2013-03-02 20:53:00,
2013-03-02 13:58:00,56.2,22.7,29.53,North,-999,0.0,0.0,27,0.00,,,0.00,LWC V1.12 B30,2013-03-02 20:58:00,
2013-03-02 14:03:00,56.4,22.8,29.53,North,-999,0.0,0.0,27,0.00,,,0.00,LWC V1.12 B30,2013-03-02 21:03:00,
2013-03-02 14:08:00,56.6,23.0,29.53,North,-999,0.0,0.0,27,0.00,,,0.00,LWC V1.12 B30,2013-03-02 21:08:00,
2013-03-02 14:13:00,56.7,23.1,29.53,North,-999,0.0,0.0,27,0.00,,,0.00,LWC V1.12 B30,2013-03-02 21:13:00,
2013-03-02 14:18:00,56.8,23.2,29.53,North,-999,0.0,0.0,27,0.00,,,0.00,LWC V1.12 B30,2013-03-02 21:18:00,
2013-03-02 14:23:00,56.9,23.3,29.53,North,-999,0.0,0.0,27,0.00,,,0.00,LWC V1.12 B30,2013-03-02 21:23:00,
2013-03-02 14:28:00,57.0,22.5,29.53,North,-999,0.0,0.0,26,0.00,,,0.00,LWC V1.12 B30,2013-03-02 21:28:00,
2013-03-02 14:33:00,57.1,22.5,29.53,North,-999,0.0,0.0,26,0.00,,,0.00,LWC V1.12 B30,2013-03-02 21:33:00,
2013-03-02 14:38:00,57.2,22.6,29.53,North,-999,0.0,0.0,26,0.00,,,0.00,LWC V1.12 B30,2013-03-02 21:38:00,
2013-03-02 14:43:00,57.4,22.8,29.53,North,-999,0.0,0.0,26,0.00,,,0.00,LWC V1.12 B30,2013-03-02 21:43:00,
2013-03-02 14:48:00,57.6,22.0,29.53,North,-999,0.0,0.0,25,0.00,,,0.00,LWC V1.12 B30,2013-03-02 21:48:00,
2013-03-02 14:53:00,57.7,23.1,29.53,North,-999,0.0,0.0,26,0.00,,,0.00,LWC V1.12 B30,2013-03-02 21:53:00,
2013-03-02 14:58:00,57.8,22.2,29.53,North,-999,0.0,0.0,25,0.00,,,0.00,LWC V1.12 B30,2013-03-02 21:58:00,
2013-03-02 15:03:00,58.1,22.5,29.53,North,-999,0.0,0.0,25,0.00,,,0.00,LWC V1.12 B30,2013-03-02 22:03:00,
2013-03-02 15:08:00,58.4,21.8,29.53,North,-999,0.0,0.0,24,0.00,,,0.00,LWC V1.12 B30,2013-03-02 22:08:00,
2013-03-02 15:13:00,58.5,21.8,29.53,North,-999,0.0,0.0,24,0.00,,,0.00,LWC V1.12 B30,2013-03-02 22:13:00,
2013-03-02 15:18:00,58.6,21.9,29.53,North,-999,0.0,0.0,24,0.00,,,0.00,LWC V1.12 B30,2013-03-02 22:18:00,
2013-03-02 15:23:00,58.7,22.0,29.53,North,-999,0.0,0.0,24,0.00,,,0.00,LWC V1.12 B30,2013-03-02 22:23:00,
2013-03-02 15:28:00,58.8,22.1,29.53,North,-999,0.0,0.0,24,0.00,,,0.00,LWC V1.12 B30,2013-03-02 22:28:00,
2013-03-02 15:33:00,59.0,22.3,29.53,North,-999,0.0,0.0,24,0.00,,,0.00,LWC V1.12 B30,2013-03-02 22:33:00,
2013-03-02 15:38:00,59.1,22.4,29.53,North,-999,0.0,0.0,24,0.00,,,0.00,LWC V1.12 B30,2013-03-02 22:38:00,
2013-03-02 15:43:00,59.1,22.4,29.53,North,-999,0.0,0.0,24,0.00,,,0.00,LWC V1.12 B30,2013-03-02 22:43:00,
2013-03-02 15:48:00,59.2,22.4,29.53,North,-999,0.0,0.0,24,0.00,,,0.00,LWC V1.12 B30,2013-03-02 22:48:00,
2013-03-02 15:53:00,59.2,22.4,29.53,North,-999,0.0,0.0,24,0.00,,,0.00,LWC V1.12 B30,2013-03-02 22:53:00,
2013-03-02 15:58:00,59.0,22.3,29.53,North,-999,0.0,0.0,24,0.00,,,0.00,LWC V1.12 B30,2013-03-02 22:58:00,
2013-03-02 16:03:00,58.8,22.1,29.53,North,-999,0.0,0.0,24,0.00,,,0.00,LWC V1.12 B30,2013-03-02 23:03:00,
2013-03-02 16:08:00,58.8,22.1,29.53,North,-999,0.0,0.0,24,0.00,,,0.00,LWC V1.12 B30,2013-03-02 23:08:00,
2013-03-02 16:13:00,58.9,22.2,29.53,North,-999,0.0,0.0,24,0.00,,,0.00,LWC V1.12 B30,2013-03-02 23:13:00,
2013-03-02 16:18:00,58.8,22.1,29.53,North,-999,0.0,0.0,24,0.00,,,0.00,LWC V1.12 B30,2013-03-02 23:18:00,
2013-03-02 16:23:00,58.7,22.0,29.53,North,-999,0.0,0.0,24,0.00,,,0.00,LWC V1.12 B30,2013-03-02 23:23:00,
2013-03-02 16:28:00,58.6,21.9,29.53,North,-999,0.0,0.0,24,0.00,,,0.00,LWC V1.12 B30,2013-03-02 23:28:00,
2013-03-02 16:33:00,58.6,21.9,29.53,North,-999,0.0,0.0,24,0.00,,,0.00,LWC V1.12 B30,2013-03-02 23:33:00,
2013-03-02 16:38:00,58.6,21.9,29.53,North,-999,0.0,0.0,24,0.00,,,0.00,LWC V1.12 B30,2013-03-02 23:38:00,
2013-03-02 16:43:00,58.6,21.9,29.53,North,-999,0.0,0.0,24,0.00,,,0.00,LWC V1.12 B30,2013-03-02 23:43:00,
2013-03-02 16:48:00,58.5,21.8,29.53,North,-999,0.0,0.0,24,0.00,,,0.00,LWC V1.12 B30,2013-03-02 23:48:00,
2013-03-02 16:53:00,58.3,21.7,29.53,North,-999,0.0,0.0,24,0.00,,,0.00,LWC V1.12 B30,2013-03-02 23:53:00,
2013-03-02 16:58:00,58.3,21.7,29.53,North,-999,0.0,0.0,24,0.00,,,0.00,LWC V1.12 B30,2013-03-02 23:58:00,
2013-03-02 17:03:00,58.2,21.6,29.53,North,-999,0.0,0.0,24,0.00,,,0.00,LWC V1.12 B30,2013-03-03 00:03:00,
2013-03-02 17:08:00,58.1,21.5,29.53,North,-999,0.0,0.0,24,0.00,,,0.00,LWC V1.12 B30,2013-03-03 00:08:00,
2013-03-02 17:13:00,58.1,21.5,29.53,North,-999,0.0,0.0,24,0.00,,,0.00,LWC V1.12 B30,2013-03-03 00:13:00,
2013-03-02 17:18:00,57.9,21.3,29.53,North,-999,0.0,0.0,24,0.00,,,0.00,LWC V1.12 B30,2013-03-03 00:18:00,
2013-03-02 17:23:00,58.0,21.4,29.53,North,-999,0.0,0.0,24,0.00,,,0.00,LWC V1.12 B30,2013-03-03 00:23:00,
2013-03-02 17:28:00,57.9,21.3,29.53,North,-999,0.0,0.0,24,0.00,,,0.00,LWC V1.12 B30,2013-03-03 00:28:00,
2013-03-02 17:33:00,57.8,21.3,29.53,North,-999,0.0,0.0,24,0.00,,,0.00,LWC V1.12 B30,2013-03-03 00:33:00,
2013-03-02 17:39:00,57.8,21.3,29.53,North,-999,0.0,0.0,24,0.00,,,0.00,LWC V1.12 B30,2013-03-03 00:39:00,
2013-03-02 17:44:00,57.7,21.2,29.53,North,-999,0.0,0.0,24,0.00,,,0.00,LWC V1.12 B30,2013-03-03 00:44:00,
2013-03-02 17:49:00,57.5,22.0,29.53,North,-999,0.0,0.0,25,0.00,,,0.00,LWC V1.12 B30,2013-03-03 00:49:00,
2013-03-02 17:54:00,57.4,21.9,29.53,North,-999,0.0,0.0,25,0.00,,,0.00,LWC V1.12 B30,2013-03-03 00:54:00,
2013-03-02 17:59:00,57.2,21.7,29.53,North,-999,0.0,0.0,25,0.00,,,0.00,LWC V1.12 B30,2013-03-03 00:59:00,
2013-03-02 18:04:00,57.0,21.5,29.53,North,-999,0.0,0.0,25,0.00,,,0.00,LWC V1.12 B30,2013-03-03 01:04:00,
2013-03-02 18:09:00,56.7,22.2,29.53,North,-999,0.0,0.0,26,0.00,,,0.00,LWC V1.12 B30,2013-03-03 01:09:00,
2013-03-02 18:14:00,56.4,22.8,29.53,North,-999,0.0,0.0,27,0.00,,,0.00,LWC V1.12 B30,2013-03-03 01:14:00,
2013-03-02 18:19:00,56.1,22.6,29.53,North,-999,0.0,0.0,27,0.00,,,0.00,LWC V1.12 B30,2013-03-03 01:19:00,
2013-03-02 18:24:00,56.1,22.6,29.53,North,-999,0.0,0.0,27,0.00,,,0.00,LWC V1.12 B30,2013-03-03 01:24:00,
2013-03-02 18:29:00,55.9,22.4,29.53,North,-999,0.0,0.0,27,0.00,,,0.00,LWC V1.12 B30,2013-03-03 01:29:00,
2013-03-02 18:34:00,55.9,22.4,29.53,North,-999,0.0,0.0,27,0.00,,,0.00,LWC V1.12 B30,2013-03-03 01:34:00,
2013-03-02 18:39:00,55.9,22.4,29.53,North,-999,0.0,0.0,27,0.00,,,0.00,LWC V1.12 B30,2013-03-03 01:39:00,
2013-03-02 18:44:00,55.7,22.2,29.53,North,-999,0.0,0.0,27,0.00,,,0.00,LWC V1.12 B30,2013-03-03 01:44:00,
2013-03-02 18:49:00,55.5,22.1,29.53,North,-999,0.0,0.0,27,0.00,,,0.00,LWC V1.12 B30,2013-03-03 01:49:00,
2013-03-02 18:54:00,55.2,21.8,29.53,North,-999,0.0,0.0,27,0.00,,,0.00,LWC V1.12 B30,2013-03-03 01:54:00,
2013-03-02 18:59:00,54.8,21.5,29.53,North,-999,0.0,0.0,27,0.00,,,0.00,LWC V1.12 B30,2013-03-03 01:59:00,
2013-03-02 19:04:00,54.5,21.2,29.53,North,-999,0.0,0.0,27,0.00,,,0.00,LWC V1.12 B30,2013-03-03 02:04:00,
2013-03-02 19:09:00,54.4,22.0,29.53,North,-999,0.0,0.0,28,0.00,,,0.00,LWC V1.12 B30,2013-03-03 02:09:00,
2013-03-02 19:14:00,54.2,22.6,29.53,North,-999,0.0,0.0,29,0.00,,,0.00,LWC V1.12 B30,2013-03-03 02:14:00,
2013-03-02 19:19:00,54.0,22.5,29.53,North,-999,0.0,0.0,29,0.00,,,0.00,LWC V1.12 B30,2013-03-03 02:19:00,
2013-03-02 19:24:00,53.8,22.3,29.53,North,-999,0.0,0.0,29,0.00,,,0.00,LWC V1.12 B30,2013-03-03 02:24:00,
2013-03-02 19:29:00,53.7,23.0,29.53,North,-999,0.0,0.0,30,0.00,,,0.00,LWC V1.12 B30,2013-03-03 02:29:00,
2013-03-02 19:34:00,53.5,22.8,29.53,North,-999,0.0,0.0,30,0.00,,,0.00,LWC V1.12 B30,2013-03-03 02:34:00,
2013-03-02 19:39:00,53.4,22.0,29.53,North,-999,0.0,0.0,29,0.00,,,0.00,LWC V1.12 B30,2013-03-03 02:39:00,
2013-03-02 19:44:00,53.4,22.0,29.53,North,-999,0.0,0.0,29,0.00,,,0.00,LWC V1.12 B30,2013-03-03 02:44:00,
2013-03-02 19:49:00,53.2,22.6,29.53,North,-999,0.0,0.0,30,0.00,,,0.00,LWC V1.12 B30,2013-03-03 02:49:00,
2013-03-02 19:54:00,53.1,22.5,29.53,North,-999,0.0,0.0,30,0.00,,,0.00,LWC V1.12 B30,2013-03-03 02:54:00,
2013-03-02 19:59:00,52.9,22.3,29.53,North,-999,0.0,0.0,30,0.00,,,0.00,LWC V1.12 B30,2013-03-03 02:59:00,
2013-03-02 20:04:00,52.8,23.0,29.53,North,-999,0.0,0.0,31,0.00,,,0.00,LWC V1.12 B30,2013-03-03 03:04:00,
2013-03-02 20:09:00,52.7,23.7,29.53,North,-999,0.0,0.0,32,0.00,,,0.00,LWC V1.12 B30,2013-03-03 03:09:00,
2013-03-02 20:14:00,52.6,23.6,29.53,North,-999,0.0,0.0,32,0.00,,,0.00,LWC V1.12 B30,2013-03-03 03:14:00,
2013-03-02 20:19:00,52.5,23.5,29.53,North,-999,0.0,0.0,32,0.00,,,0.00,LWC V1.12 B30,2013-03-03 03:19:00,
2013-03-02 20:24:00,52.3,24.1,29.53,North,-999,0.0,0.0,33,0.00,,,0.00,LWC V1.12 B30,2013-03-03 03:24:00,
2013-03-02 20:29:00,52.2,24.0,29.53,North,-999,0.0,0.0,33,0.00,,,0.00,LWC V1.12 B30,2013-03-03 03:29:00,
2013-03-02 20:34:00,52.0,23.1,29.53,North,-999,0.0,0.0,32,0.00,,,0.00,LWC V1.12 B30,2013-03-03 03:34:00,
2013-03-02 20:39:00,51.8,23.6,29.53,North,-999,0.0,0.0,33,0.00,,,0.00,LWC V1.12 B30,2013-03-03 03:39:00,
2013-03-02 20:44:00,51.7,22.8,29.53,North,-999,0.0,0.0,32,0.00,,,0.00,LWC V1.12 B30,2013-03-03 03:44:00,
2013-03-02 20:49:00,51.7,23.5,29.53,North,-999,0.0,0.0,33,0.00,,,0.00,LWC V1.12 B30,2013-03-03 03:49:00,
2013-03-02 20:54:00,51.6,23.4,29.53,North,-999,0.0,0.0,33,0.00,,,0.00,LWC V1.12 B30,2013-03-03 03:54:00,
2013-03-02 20:59:00,51.5,23.4,29.53,North,-999,0.0,0.0,33,0.00,,,0.00,LWC V1.12 B30,2013-03-03 03:59:00,
2013-03-02 21:04:00,51.3,23.2,29.53,North,-999,0.0,0.0,33,0.00,,,0.00,LWC V1.12 B30,2013-03-03 04:04:00,
2013-03-02 21:09:00,51.2,23.1,29.53,North,-999,0.0,0.0,33,0.00,,,0.00,LWC V1.12 B30,2013-03-03 04:09:00,
2013-03-02 21:14:00,50.9,22.8,29.53,North,-999,0.0,0.0,33,0.00,,,0.00,LWC V1.12 B30,2013-03-03 04:14:00,
2013-03-02 21:19:00,50.8,22.7,29.53,North,-999,0.0,0.0,33,0.00,,,0.00,LWC V1.12 B30,2013-03-03 04:19:00,
2013-03-02 21:24:00,50.6,23.3,29.53,North,-999,0.0,0.0,34,0.00,,,0.00,LWC V1.12 B30,2013-03-03 04:24:00,
2013-03-02 21:29:00,50.6,24.0,29.53,North,-999,0.0,0.0,35,0.00,,,0.00,LWC V1.12 B30,2013-03-03 04:29:00,
2013-03-02 21:34:00,50.5,23.9,29.53,North,-999,0.0,0.0,35,0.00,,,0.00,LWC V1.12 B30,2013-03-03 04:34:00,
2013-03-02 21:39:00,50.4,23.1,29.53,North,-999,0.0,0.0,34,0.00,,,0.00,LWC V1.12 B30,2013-03-03 04:39:00,
2013-03-02 21:44:00,50.1,23.5,29.53,North,-999,0.0,0.0,35,0.00,,,0.00,LWC V1.12 B30,2013-03-03 04:44:00,
2013-03-02 21:49:00,50.0,22.8,29.53,North,-999,0.0,0.0,34,0.00,,,0.00,LWC V1.12 B30,2013-03-03 04:49:00,
2013-03-02 21:54:00,49.9,23.4,29.53,North,-999,0.0,0.0,35,0.00,,,0.00,LWC V1.12 B30,2013-03-03 04:54:00,
2013-03-02 21:59:00,49.7,22.5,29.53,North,-999,0.0,0.0,34,0.00,,,0.00,LWC V1.12 B30,2013-03-03 04:59:00,
2013-03-02 22:00:00,49.6,23.1,29.53,North,-999,0.0,0.0,35,0.00,,,0.00,LWC V1.12 B30,2013-03-03 05:00:00,
2013-03-02 22:01:00,49.6,23.8,29.53,North,-999,0.0,0.0,36,0.00,,,0.00,LWC V1.12 B30,2013-03-03 05:01:00,
2013-03-02 22:06:00,49.5,22.3,29.53,North,-999,0.0,0.0,34,0.00,,,0.00,LWC V1.12 B30,2013-03-03 05:06:00,
2013-03-02 22:10:00,49.4,22.9,29.53,North,-999,0.0,0.0,35,0.00,,,0.00,LWC V1.12 B30,2013-03-03 05:10:00,
2013-03-02 22:15:00,49.3,23.5,29.53,North,-999,0.0,0.0,36,0.00,,,0.00,LWC V1.12 B30,2013-03-03 05:15:00,
2013-03-02 22:20:00,49.2,22.7,29.53,North,-999,0.0,0.0,35,0.00,,,0.00,LWC V1.12 B30,2013-03-03 05:20:00,
2013-03-02 22:25:00,49.0,22.6,29.53,North,-999,0.0,0.0,35,0.00,,,0.00,LWC V1.12 B30,2013-03-03 05:25:00,
2013-03-02 22:30:00,48.7,23.0,29.53,North,-999,0.0,0.0,36,0.00,,,0.00,LWC V1.12 B30,2013-03-03 05:30:00,
2013-03-02 22:35:00,48.7,23.0,29.53,North,-999,0.0,0.0,36,0.00,,,0.00,LWC V1.12 B30,2013-03-03 05:35:00,
2013-03-02 22:40:00,48.6,23.5,29.53,North,-999,0.0,0.0,37,0.00,,,0.00,LWC V1.12 B30,2013-03-03 05:40:00,
2013-03-02 22:45:00,48.5,22.8,29.53,North,-999,0.0,0.0,36,0.00,,,0.00,LWC V1.12 B30,2013-03-03 05:45:00,
2013-03-02 22:50:00,48.4,23.3,29.53,North,-999,0.0,0.0,37,0.00,,,0.00,LWC V1.12 B30,2013-03-03 05:50:00,
2013-03-02 22:55:00,48.4,22.7,29.53,North,-999,0.0,0.0,36,0.00,,,0.00,LWC V1.12 B30,2013-03-03 05:55:00,
2013-03-02 23:00:00,48.4,23.3,29.53,North,-999,0.0,0.0,37,0.00,,,0.00,LWC V1.12 B30,2013-03-03 06:00:00,
2013-03-02 23:05:00,48.3,23.3,29.53,North,-999,0.0,0.0,37,0.00,,,0.00,LWC V1.12 B30,2013-03-03 06:05:00,
2013-03-02 23:10:00,48.2,23.2,29.53,North,-999,0.0,0.0,37,0.00,,,0.00,LWC V1.12 B30,2013-03-03 06:10:00,
2013-03-02 23:15:00,48.0,23.0,29.53,North,-999,0.0,0.0,37,0.00,,,0.00,LWC V1.12 B30,2013-03-03 06:15:00,
2013-03-02 23:20:00,47.9,22.9,29.53,North,-999,0.0,0.0,37,0.00,,,0.00,LWC V1.12 B30,2013-03-03 06:20:00,
2013-03-02 23:25:00,47.8,22.8,29.53,North,-999,0.0,0.0,37,0.00,,,0.00,LWC V1.12 B30,2013-03-03 06:25:00,
2013-03-02 23:30:00,47.7,23.4,29.53,North,-999,0.0,0.0,38,0.00,,,0.00,LWC V1.12 B30,2013-03-03 06:30:00,
2013-03-02 23:35:00,47.7,22.1,29.53,North,-999,0.0,0.0,36,0.00,,,0.00,LWC V1.12 B30,2013-03-03 06:35:00,
2013-03-02 23:40:00,47.6,23.3,29.53,North,-999,0.0,0.0,38,0.00,,,0.00,LWC V1.12 B30,2013-03-03 06:40:00,
2013-03-02 23:45:00,47.6,23.3,29.53,North,-999,0.0,0.0,38,0.00,,,0.00,LWC V1.12 B30,2013-03-03 06:45:00,
2013-03-02 23:50:00,47.6,23.3,29.53,North,-999,0.0,0.0,38,0.00,,,0.00,LWC V1.12 B30,2013-03-03 06:50:00,
2013-03-02 23:55:00,47.5,22.5,29.53,North,-999,0.0,0.0,37,0.00,,,0.00,LWC V1.12 B30,2013-03-03 06:55:00,